Time,TemperatureF,DewpointF,PressureIn,WindDirection,WindDirectionDegrees,WindSpeedMPH,WindSpeedGustMPH,Humidity,HourlyPrecipIn,Conditions,Clouds,dailyrainin,SoftwareType,DateUTC
2013-06-21 00:05:00,80.1,71.5,29.76,SSE,148,17.0,29.0,75,0.00,,,0.00,Wunderground v.1.15,2013-06-21 05:05:00,
2013-06-21 00:10:00,80.0,71.4,29.76,SSE,148,17.0,17.0,75,0.00,,,0.00,Wunderground v.1.15,2013-06-21 05:10:00,
2013-06-21 00:15:00,79.8,71.2,29.76,SSE,151,16.0,29.0,75,0.00,,,0.00,Wunderground v.1.15,2013-06-21 05:15:00,
2013-06-21 00:20:00,79.6,71.0,29.76,SSE,148,15.0,29.0,75,0.00,,,0.00,Wunderground v.1.15,2013-06-21 05:20:00,
2013-06-21 00:25:00,79.4,70.8,29.76,SSE,158,15.0,29.0,75,0.00,,,0.00,Wunderground v.1.15,2013-06-21 05:25:00,
2013-06-21 00:30:00,79.4,70.8,29.76,SSE,153,15.0,29.0,75,0.00,,,0.00,Wunderground v.1.15,2013-06-21 05:30:00,
2013-06-21 00:40:00,79.1,70.9,29.76,SSE,150,16.0,29.0,76,0.00,,,0.00,Wunderground v.1.15,2013-06-21 05:40:00,
2013-06-21 00:45:00,79.0,70.8,29.75,SSE,149,17.0,29.0,76,0.00,,,0.00,Wunderground v.1.15,2013-06-21 05:45:00,
2013-06-21 00:50:00,78.8,70.6,29.75,SSE,162,17.0,17.0,76,0.00,,,0.00,Wunderground v.1.15,2013-06-21 05:50:00,
2013-06-21 00:55:00,78.8,70.6,29.75,SSE,147,16.0,21.0,76,0.00,,,0.00,Wunderground v.1.15,2013-06-21 05:55:00,
2013-06-21 01:00:00,78.8,70.6,29.75,SSE,151,16.0,29.0,76,0.00,,,0.00,Wunderground v.1.15,2013-06-21 06:00:00,
2013-06-21 01:09:00,78.7,70.1,29.75,SSE,148,19.0,29.0,75,0.00,,,0.00,Wunderground v.1.15,2013-06-21 06:09:00,
2013-06-21 01:14:00,78.5,69.9,29.74,SSE,162,19.0,29.0,75,0.00,,,0.00,Wunderground v.1.15,2013-06-21 06:14:00,
2013-06-21 01:20:00,78.5,69.9,29.74,SE,144,19.0,29.0,75,0.00,,,0.00,Wunderground v.1.15,2013-06-21 06:20:00,
2013-06-21 01:25:00,78.4,69.8,29.74,SSE,161,19.0,29.0,75,0.00,,,0.00,Wunderground v.1.15,2013-06-21 06:25:00,
2013-06-21 01:30:00,78.5,69.9,29.75,SSE,163,19.0,29.0,75,0.00,,,0.00,Wunderground v.1.15,2013-06-21 06:30:00,
2013-06-21 01:35:00,78.4,69.8,29.75,SSE,158,19.0,29.0,75,0.00,,,0.00,Wunderground v.1.15,2013-06-21 06:35:00,
2013-06-21 01:44:00,78.2,69.6,29.75,South,169,18.0,29.0,75,0.00,,,0.00,Wunderground v.1.15,2013-06-21 06:44:00,
2013-06-21 01:49:00,78.2,69.6,29.75,SSE,157,19.0,19.0,75,0.00,,,0.00,Wunderground v.1.15,2013-06-21 06:49:00,
2013-06-21 01:54:00,77.9,69.7,29.75,South,169,18.0,29.0,76,0.00,,,0.00,Wunderground v.1.15,2013-06-21 06:54:00,
2013-06-21 01:59:00,78.0,69.8,29.74,SSE,162,18.0,29.0,76,0.00,,,0.00,Wunderground v.1.15,2013-06-21 06:59:00,
2013-06-21 02:04:00,77.7,69.5,29.74,SSE,159,19.0,29.0,76,0.00,,,0.00,Wunderground v.1.15,2013-06-21 07:04:00,
2013-06-21 02:10:00,77.6,69.4,29.74,SSE,164,19.0,19.0,76,0.00,,,0.00,Wunderground v.1.15,2013-06-21 07:10:00,
2013-06-21 02:15:00,77.4,69.2,29.74,SSE,148,18.0,25.0,76,0.00,,,0.00,Wunderground v.1.15,2013-06-21 07:15:00,
2013-06-21 02:20:00,77.4,69.2,29.73,SSE,163,18.0,18.0,76,0.00,,,0.00,Wunderground v.1.15,2013-06-21 07:20:00,
2013-06-21 02:25:00,77.4,69.2,29.73,SSE,166,18.0,20.0,76,0.00,,,0.00,Wunderground v.1.15,2013-06-21 07:25:00,
2013-06-21 02:30:00,77.3,69.1,29.73,SSE,161,18.0,29.0,76,0.00,,,0.00,Wunderground v.1.15,2013-06-21 07:30:00,
2013-06-21 02:35:00,77.1,69.3,29.73,SSE,153,18.0,29.0,77,0.00,,,0.00,Wunderground v.1.15,2013-06-21 07:35:00,
2013-06-21 02:45:00,77.0,69.2,29.73,SSE,148,18.0,29.0,77,0.00,,,0.00,Wunderground v.1.15,2013-06-21 07:45:00,
2013-06-21 02:50:00,77.0,69.2,29.72,SSE,159,17.0,29.0,77,0.00,,,0.00,Wunderground v.1.15,2013-06-21 07:50:00,
2013-06-21 02:55:00,77.2,69.0,29.72,SSE,157,18.0,29.0,76,0.00,,,0.00,Wunderground v.1.15,2013-06-21 07:55:00,
2013-06-21 03:00:00,77.1,68.9,29.73,SSE,168,19.0,19.0,76,0.00,,,0.00,Wunderground v.1.15,2013-06-21 08:00:00,
2013-06-21 03:05:00,76.9,69.1,29.72,SSE,163,18.0,29.0,77,0.00,,,0.00,Wunderground v.1.15,2013-06-21 08:05:00,
2013-06-21 03:10:00,76.8,69.0,29.72,SSE,166,18.0,18.0,77,0.00,,,0.00,Wunderground v.1.15,2013-06-21 08:10:00,
2013-06-21 03:20:00,76.6,68.8,29.72,SSE,161,17.0,29.0,77,0.00,,,0.00,Wunderground v.1.15,2013-06-21 08:20:00,
2013-06-21 03:25:00,76.5,69.1,29.72,SSE,152,17.0,29.0,78,0.00,,,0.00,Wunderground v.1.15,2013-06-21 08:25:00,
2013-06-21 03:30:00,76.4,69.0,29.71,SSE,148,18.0,18.0,78,0.00,,,0.00,Wunderground v.1.15,2013-06-21 08:30:00,
2013-06-21 03:35:00,76.3,68.9,29.71,SSE,148,18.0,29.0,78,0.00,,,0.00,Wunderground v.1.15,2013-06-21 08:35:00,
2013-06-21 03:40:00,76.2,68.8,29.72,SSE,161,17.0,29.0,78,0.00,,,0.00,Wunderground v.1.15,2013-06-21 08:40:00,
2013-06-21 03:50:00,76.0,68.6,29.71,SSE,152,17.0,29.0,78,0.00,,,0.00,Wunderground v.1.15,2013-06-21 08:50:00,
2013-06-21 03:55:00,76.0,68.6,29.71,SSE,165,16.0,29.0,78,0.00,,,0.00,Wunderground v.1.15,2013-06-21 08:55:00,
2013-06-21 04:00:00,76.0,68.6,29.71,SSE,166,16.0,29.0,78,0.00,,,0.00,Wunderground v.1.15,2013-06-21 09:00:00,
2013-06-21 04:05:00,76.0,68.6,29.72,SSE,165,17.0,29.0,78,0.00,,,0.00,Wunderground v.1.15,2013-06-21 09:05:00,
2013-06-21 04:10:00,76.2,68.8,29.72,SSE,165,17.0,17.0,78,0.00,,,0.00,Wunderground v.1.15,2013-06-21 09:10:00,
2013-06-21 04:15:00,76.3,68.9,29.72,SSE,164,17.0,29.0,78,0.00,,,0.00,Wunderground v.1.15,2013-06-21 09:15:00,
2013-06-21 04:25:00,76.4,68.7,29.71,SSE,165,18.0,29.0,77,0.00,,,0.00,Wunderground v.1.15,2013-06-21 09:25:00,
2013-06-21 04:30:00,76.4,68.7,29.71,South,175,18.0,18.0,77,0.00,,,0.00,Wunderground v.1.15,2013-06-21 09:30:00,
2013-06-21 04:40:00,76.5,68.7,29.72,SSE,168,17.0,17.0,77,0.00,,,0.00,Wunderground v.1.15,2013-06-21 09:40:00,
2013-06-21 04:50:00,76.2,68.5,29.71,SSE,165,16.0,16.0,77,0.00,,,0.00,Wunderground v.1.15,2013-06-21 09:50:00,
2013-06-21 04:55:00,76.2,68.5,29.71,SSE,167,16.0,20.0,77,0.00,,,0.00,Wunderground v.1.15,2013-06-21 09:55:00,
2013-06-21 05:05:00,75.9,68.2,29.71,South,171,16.0,27.0,77,0.00,,,0.00,Wunderground v.1.15,2013-06-21 10:05:00,
2013-06-21 05:10:00,75.8,68.1,29.70,SSE,155,15.0,27.0,77,0.00,,,0.00,Wunderground v.1.15,2013-06-21 10:10:00,
2013-06-21 05:15:00,75.7,68.0,29.71,South,173,16.0,27.0,77,0.00,,,0.00,Wunderground v.1.15,2013-06-21 10:15:00,
2013-06-21 05:20:00,75.6,68.3,29.71,SSE,166,15.0,27.0,78,0.00,,,0.00,Wunderground v.1.15,2013-06-21 10:20:00,
2013-06-21 05:30:00,75.4,68.1,29.70,South,173,16.0,27.0,78,0.00,,,0.00,Wunderground v.1.15,2013-06-21 10:30:00,
2013-06-21 05:35:00,75.3,68.0,29.70,SSE,166,17.0,27.0,78,0.00,,,0.00,Wunderground v.1.15,2013-06-21 10:35:00,
2013-06-21 05:40:00,75.3,68.0,29.70,SSE,164,17.0,17.0,78,0.00,,,0.00,Wunderground v.1.15,2013-06-21 10:40:00,
2013-06-21 05:45:00,75.2,67.9,29.70,South,173,18.0,18.0,78,0.00,,,0.00,Wunderground v.1.15,2013-06-21 10:45:00,
2013-06-21 05:55:00,75.1,67.8,29.71,SSE,160,17.0,27.0,78,0.00,,,0.00,Wunderground v.1.15,2013-06-21 10:55:00,
2013-06-21 06:00:00,75.1,68.1,29.71,SSE,163,17.0,27.0,79,0.00,,,0.00,Wunderground v.1.15,2013-06-21 11:00:00,
2013-06-21 06:05:00,75.0,68.0,29.70,SSE,165,18.0,27.0,79,0.00,,,0.00,Wunderground v.1.15,2013-06-21 11:05:00,
2013-06-21 06:15:00,74.9,67.9,29.69,SSE,159,19.0,27.0,79,0.00,,,0.00,Wunderground v.1.15,2013-06-21 11:15:00,
2013-06-21 06:20:00,74.7,68.1,29.69,SSE,167,19.0,19.0,80,0.00,,,0.00,Wunderground v.1.15,2013-06-21 11:20:00,
2013-06-21 06:25:00,74.8,68.2,29.70,South,169,20.0,21.0,80,0.00,,,0.00,Wunderground v.1.15,2013-06-21 11:25:00,
2013-06-21 06:30:00,74.7,68.1,29.70,SSE,165,21.0,21.0,80,0.00,,,0.00,Wunderground v.1.15,2013-06-21 11:30:00,
2013-06-21 06:40:00,74.8,68.2,29.72,SSE,165,19.0,19.0,80,0.00,,,0.00,Wunderground v.1.15,2013-06-21 11:40:00,
2013-06-21 06:45:00,74.8,67.8,29.72,South,171,19.0,21.0,79,0.00,,,0.00,Wunderground v.1.15,2013-06-21 11:45:00,
2013-06-21 06:50:00,74.8,67.8,29.71,SSE,161,19.0,27.0,79,0.00,,,0.00,Wunderground v.1.15,2013-06-21 11:50:00,
2013-06-21 06:55:00,74.7,67.8,29.71,SSE,166,18.0,27.0,79,0.00,,,0.00,Wunderground v.1.15,2013-06-21 11:55:00,
2013-06-21 07:00:00,74.6,68.0,29.71,SSE,155,17.0,27.0,80,0.00,,,0.00,Wunderground v.1.15,2013-06-21 12:00:00,
2013-06-21 07:10:00,74.6,67.7,29.72,South,174,13.0,13.0,79,0.00,,,0.00,Wunderground v.1.15,2013-06-21 12:10:00,
2013-06-21 07:15:00,74.6,67.7,29.72,South,172,10.0,27.0,79,0.00,,,0.00,Wunderground v.1.15,2013-06-21 12:15:00,
2013-06-21 07:20:00,74.6,67.7,29.72,SSE,166,9.0,9.0,79,0.00,,,0.00,Wunderground v.1.15,2013-06-21 12:20:00,
2013-06-21 07:25:00,74.8,67.5,29.72,SSE,166,10.0,10.0,78,0.00,,,0.00,Wunderground v.1.15,2013-06-21 12:25:00,
2013-06-21 07:35:00,74.7,67.4,29.72,South,170,12.0,27.0,78,0.00,,,0.00,Wunderground v.1.15,2013-06-21 12:35:00,
2013-06-21 07:40:00,74.6,67.7,29.71,SSE,167,15.0,15.0,79,0.00,,,0.00,Wunderground v.1.15,2013-06-21 12:40:00,
2013-06-21 07:45:00,74.6,67.7,29.71,SSE,159,15.0,21.0,79,0.00,,,0.00,Wunderground v.1.15,2013-06-21 12:45:00,
2013-06-21 07:55:00,74.8,67.5,29.71,South,169,15.0,27.0,78,0.00,,,0.00,Wunderground v.1.15,2013-06-21 12:55:00,
2013-06-21 08:00:00,75.1,67.4,29.71,South,176,15.0,15.0,77,0.00,,,0.00,Wunderground v.1.15,2013-06-21 13:00:00,
2013-06-21 08:05:00,75.3,67.6,29.71,SE,136,15.0,27.0,77,0.00,,,0.00,Wunderground v.1.15,2013-06-21 13:05:00,
2013-06-21 08:10:00,75.4,67.3,29.72,South,170,16.0,27.0,76,0.00,,,0.00,Wunderground v.1.15,2013-06-21 13:10:00,
2013-06-21 08:15:00,75.5,67.0,29.72,SSE,159,17.0,27.0,75,0.00,,,0.00,Wunderground v.1.15,2013-06-21 13:15:00,
2013-06-21 08:25:00,75.5,67.0,29.72,SSE,168,19.0,27.0,75,0.00,,,0.00,Wunderground v.1.15,2013-06-21 13:25:00,
2013-06-21 08:30:00,75.5,67.0,29.72,South,169,19.0,19.0,75,0.00,,,0.00,Wunderground v.1.15,2013-06-21 13:30:00,
2013-06-21 08:35:00,75.6,67.1,29.72,SSE,155,18.0,21.0,75,0.00,,,0.00,Wunderground v.1.15,2013-06-21 13:35:00,
2013-06-21 08:40:00,75.8,67.3,29.72,SSE,168,16.0,27.0,75,0.00,,,0.00,Wunderground v.1.15,2013-06-21 13:40:00,
2013-06-21 08:50:00,75.8,67.3,29.73,SSE,157,16.0,27.0,75,0.00,,,0.00,Wunderground v.1.15,2013-06-21 13:50:00,
2013-06-21 08:55:00,76.0,67.1,29.73,SSE,159,16.0,27.0,74,0.00,,,0.00,Wunderground v.1.15,2013-06-21 13:55:00,
2013-06-21 09:00:00,76.0,67.5,29.73,SSE,164,18.0,18.0,75,0.00,,,0.00,Wunderground v.1.15,2013-06-21 14:00:00,
2013-06-21 09:10:00,76.4,67.5,29.73,SSE,161,18.0,27.0,74,0.00,,,0.00,Wunderground v.1.15,2013-06-21 14:10:00,
2013-06-21 09:15:00,76.8,67.9,29.73,SSE,159,16.0,27.0,74,0.00,,,0.00,Wunderground v.1.15,2013-06-21 14:15:00,
2013-06-21 09:20:00,77.2,67.9,29.74,SSE,163,17.0,17.0,73,0.00,,,0.00,Wunderground v.1.15,2013-06-21 14:20:00,
2013-06-21 09:25:00,77.2,67.9,29.74,SSE,157,17.0,19.0,73,0.00,,,0.00,Wunderground v.1.15,2013-06-21 14:25:00,
2013-06-21 09:30:00,77.4,67.7,29.74,South,170,16.0,27.0,72,0.00,,,0.00,Wunderground v.1.15,2013-06-21 14:30:00,
2013-06-21 09:40:00,77.5,67.8,29.74,SSE,154,18.0,27.0,72,0.00,,,0.00,Wunderground v.1.15,2013-06-21 14:40:00,
2013-06-21 09:45:00,77.7,68.0,29.75,SSE,165,16.0,27.0,72,0.00,,,0.00,Wunderground v.1.15,2013-06-21 14:45:00,
2013-06-21 09:50:00,77.8,68.0,29.75,SSE,153,15.0,27.0,72,0.00,,,0.00,Wunderground v.1.15,2013-06-21 14:50:00,
2013-06-21 09:55:00,78.1,67.9,29.75,SSE,154,15.0,27.0,71,0.00,,,0.00,Wunderground v.1.15,2013-06-21 14:55:00,
2013-06-21 10:05:00,78.6,68.0,29.75,South,170,14.0,27.0,70,0.00,,,0.00,Wunderground v.1.15,2013-06-21 15:05:00,
2013-06-21 10:10:00,79.1,68.1,29.75,SSE,161,13.0,13.0,69,0.00,,,0.00,Wunderground v.1.15,2013-06-21 15:10:00,
2013-06-21 10:15:00,79.6,68.1,29.75,South,171,13.0,27.0,68,0.00,,,0.00,Wunderground v.1.15,2013-06-21 15:15:00,
2013-06-21 10:24:00,80.9,68.5,29.75,South,169,13.0,27.0,66,0.00,,,0.00,Wunderground v.1.15,2013-06-21 15:24:00,
2013-06-21 10:35:00,81.8,68.0,29.74,SSE,168,15.0,27.0,63,0.00,,,0.00,Wunderground v.1.15,2013-06-21 15:35:00,
2013-06-21 10:40:00,82.0,68.6,29.74,SSE,155,14.0,14.0,64,0.00,,,0.00,Wunderground v.1.15,2013-06-21 15:40:00,
2013-06-21 10:50:00,82.6,68.3,29.74,South,169,15.0,15.0,62,0.00,,,0.00,Wunderground v.1.15,2013-06-21 15:50:00,
2013-06-21 10:55:00,83.0,68.2,29.74,SSE,157,17.0,19.0,61,0.00,,,0.00,Wunderground v.1.15,2013-06-21 15:55:00,
2013-06-21 11:00:00,83.8,68.9,29.74,South,172,17.0,27.0,61,0.00,,,0.00,Wunderground v.1.15,2013-06-21 16:00:00,
2013-06-21 11:05:00,83.9,67.5,29.74,South,171,17.0,27.0,58,0.00,,,0.00,Wunderground v.1.15,2013-06-21 16:05:00,
2013-06-21 11:15:00,85.4,67.4,29.74,SSE,157,17.0,27.0,55,0.00,,,0.00,Wunderground v.1.15,2013-06-21 16:15:00,
2013-06-21 11:20:00,85.7,68.7,29.74,SSE,159,16.0,27.0,57,0.00,,,0.00,Wunderground v.1.15,2013-06-21 16:20:00,
2013-06-21 11:25:00,85.1,67.1,29.75,SSE,168,19.0,27.0,55,0.00,,,0.00,Wunderground v.1.15,2013-06-21 16:25:00,
2013-06-21 11:30:00,84.4,66.5,29.75,South,178,19.0,19.0,55,0.00,,,0.00,Wunderground v.1.15,2013-06-21 16:30:00,
2013-06-21 11:40:00,83.9,67.5,29.75,SSE,163,19.0,27.0,58,0.00,,,0.00,Wunderground v.1.15,2013-06-21 16:40:00,
2013-06-21 11:45:00,84.6,67.2,29.75,SSE,158,20.0,27.0,56,0.00,,,0.00,Wunderground v.1.15,2013-06-21 16:45:00,
2013-06-21 11:50:00,84.9,67.5,29.75,SSE,163,21.0,27.0,56,0.00,,,0.00,Wunderground v.1.15,2013-06-21 16:50:00,
2013-06-21 11:55:00,85.9,68.4,29.75,SSE,157,20.0,31.0,56,0.00,,,0.00,Wunderground v.1.15,2013-06-21 16:55:00,
2013-06-21 12:05:00,86.9,67.2,29.75,SSE,148,24.0,27.0,52,0.00,,,0.00,Wunderground v.1.15,2013-06-21 17:05:00,
2013-06-21 12:10:00,86.2,66.5,29.75,South,175,22.0,22.0,52,0.00,,,0.00,Wunderground v.1.15,2013-06-21 17:10:00,
2013-06-21 12:20:00,86.5,67.3,29.75,SSE,159,17.0,27.0,53,0.00,,,0.00,Wunderground v.1.15,2013-06-21 17:20:00,
2013-06-21 12:25:00,86.3,66.0,29.75,SSE,152,18.0,27.0,51,0.00,,,0.00,Wunderground v.1.15,2013-06-21 17:25:00,
2013-06-21 12:34:00,87.3,65.8,29.75,SSE,167,20.0,21.0,49,0.00,,,0.00,Wunderground v.1.15,2013-06-21 17:34:00,
2013-06-21 12:40:00,88.0,67.0,29.74,SSE,149,20.0,20.0,50,0.00,,,0.00,Wunderground v.1.15,2013-06-21 17:40:00,
2013-06-21 12:45:00,88.4,66.2,29.75,SSE,166,20.0,21.0,48,0.00,,,0.00,Wunderground v.1.15,2013-06-21 17:45:00,
2013-06-21 12:50:00,88.1,64.1,29.74,SSE,152,21.0,27.0,45,0.00,,,0.00,Wunderground v.1.15,2013-06-21 17:50:00,
2013-06-21 12:55:00,88.3,65.5,29.75,South,171,20.0,27.0,47,0.00,,,0.00,Wunderground v.1.15,2013-06-21 17:55:00,
2013-06-21 13:05:00,88.0,65.8,29.74,SSE,153,22.0,27.0,48,0.00,,,0.00,Wunderground v.1.15,2013-06-21 18:05:00,
2013-06-21 13:10:00,89.8,67.5,29.74,SSE,166,23.0,23.0,48,0.00,,,0.00,Wunderground v.1.15,2013-06-21 18:10:00,
2013-06-21 13:20:00,90.3,66.7,29.73,SSE,158,24.0,32.0,46,0.00,,,0.00,Wunderground v.1.15,2013-06-21 18:20:00,
2013-06-21 13:25:00,91.0,66.7,29.73,SSE,157,25.0,32.0,45,0.00,,,0.00,Wunderground v.1.15,2013-06-21 18:25:00,
2013-06-21 13:30:00,90.6,66.3,29.73,SSE,161,26.0,26.0,45,0.00,,,0.00,Wunderground v.1.15,2013-06-21 18:30:00,
2013-06-21 13:40:00,91.0,66.1,29.73,South,173,22.0,22.0,44,0.00,,,0.00,Wunderground v.1.15,2013-06-21 18:40:00,
2013-06-21 13:45:00,90.6,65.7,29.73,SSE,160,23.0,24.0,44,0.00,,,0.00,Wunderground v.1.15,2013-06-21 18:45:00,
2013-06-21 13:50:00,90.2,66.6,29.73,SSE,168,23.0,27.0,46,0.00,,,0.00,Wunderground v.1.15,2013-06-21 18:50:00,
2013-06-21 13:55:00,90.0,67.7,29.73,South,169,23.0,27.0,48,0.00,,,0.00,Wunderground v.1.15,2013-06-21 18:55:00,
2013-06-21 14:00:00,90.7,67.7,29.73,South,176,20.0,20.0,47,0.00,,,0.00,Wunderground v.1.15,2013-06-21 19:00:00,
2013-06-21 14:04:00,91.1,67.4,29.73,South,171,21.0,22.0,46,0.00,,,0.00,Wunderground v.1.15,2013-06-21 19:04:00,
2013-06-21 14:10:00,90.9,67.3,29.73,SSE,162,24.0,24.0,46,0.00,,,0.00,Wunderground v.1.15,2013-06-21 19:10:00,
2013-06-21 14:15:00,91.1,67.4,29.73,SSE,164,25.0,25.0,46,0.00,,,0.00,Wunderground v.1.15,2013-06-21 19:15:00,
2013-06-21 14:25:00,91.6,67.3,29.72,SSE,159,22.0,25.0,45,0.00,,,0.00,Wunderground v.1.15,2013-06-21 19:25:00,
2013-06-21 14:30:00,91.8,68.1,29.72,SSE,167,23.0,23.0,46,0.00,,,0.00,Wunderground v.1.15,2013-06-21 19:30:00,
2013-06-21 14:34:00,91.8,68.7,29.72,SSE,160,23.0,27.0,47,0.00,,,0.00,Wunderground v.1.15,2013-06-21 19:34:00,
2013-06-21 14:40:00,91.6,67.9,29.72,SSE,167,21.0,21.0,46,0.00,,,0.00,Wunderground v.1.15,2013-06-21 19:40:00,
2013-06-21 14:45:00,91.9,68.2,29.71,SSE,168,21.0,27.0,46,0.00,,,0.00,Wunderground v.1.15,2013-06-21 19:45:00,
2013-06-21 14:55:00,93.1,67.3,29.71,SSE,158,21.0,27.0,43,0.00,,,0.00,Wunderground v.1.15,2013-06-21 19:55:00,
2013-06-21 14:59:00,93.3,66.8,29.71,South,177,21.0,21.0,42,0.00,,,0.00,Wunderground v.1.15,2013-06-21 19:59:00,
2013-06-21 15:05:00,93.7,67.8,29.71,SE,138,21.0,27.0,43,0.00,,,0.00,Wunderground v.1.15,2013-06-21 20:05:00,
2013-06-21 15:10:00,93.6,67.7,29.70,South,170,22.0,22.0,43,0.00,,,0.00,Wunderground v.1.15,2013-06-21 20:10:00,
2013-06-21 15:20:00,94.5,66.4,29.70,SSE,162,21.0,27.0,40,0.00,,,0.00,Wunderground v.1.15,2013-06-21 20:20:00,
2013-06-21 15:30:00,94.1,66.8,29.69,SSE,153,25.0,25.0,41,0.00,,,0.00,Wunderground v.1.15,2013-06-21 20:30:00,
2013-06-21 15:35:00,94.3,65.5,29.70,SSE,161,24.0,27.0,39,0.00,,,0.00,Wunderground v.1.15,2013-06-21 20:35:00,
2013-06-21 15:40:00,94.3,65.5,29.70,South,172,22.0,22.0,39,0.00,,,0.00,Wunderground v.1.15,2013-06-21 20:40:00,
2013-06-21 15:50:00,94.7,67.3,29.70,SSE,164,19.0,27.0,41,0.00,,,0.00,Wunderground v.1.15,2013-06-21 20:50:00,
2013-06-21 16:00:00,93.8,67.9,29.70,SSE,168,23.0,29.0,43,0.00,,,0.00,Wunderground v.1.15,2013-06-21 21:00:00,
2013-06-21 16:05:00,94.4,68.5,29.70,SSE,163,21.0,29.0,43,0.00,,,0.00,Wunderground v.1.15,2013-06-21 21:05:00,
2013-06-21 16:10:00,94.2,68.3,29.70,SSE,160,22.0,22.0,43,0.00,,,0.00,Wunderground v.1.15,2013-06-21 21:10:00,
2013-06-21 16:15:00,93.9,68.0,29.69,SSE,164,23.0,27.0,43,0.00,,,0.00,Wunderground v.1.15,2013-06-21 21:15:00,
2013-06-21 16:25:00,94.5,68.5,29.69,SSE,163,21.0,27.0,43,0.00,,,0.00,Wunderground v.1.15,2013-06-21 21:25:00,
2013-06-21 16:30:00,94.7,68.7,29.69,SSE,157,22.0,27.0,43,0.00,,,0.00,Wunderground v.1.15,2013-06-21 21:30:00,
2013-06-21 16:35:00,94.4,67.8,29.69,SSE,160,23.0,27.0,42,0.00,,,0.00,Wunderground v.1.15,2013-06-21 21:35:00,
2013-06-21 16:40:00,94.1,66.8,29.69,SSE,162,22.0,27.0,41,0.00,,,0.00,Wunderground v.1.15,2013-06-21 21:40:00,
2013-06-21 16:50:00,94.4,66.4,29.69,South,169,19.0,27.0,40,0.00,,,0.00,Wunderground v.1.15,2013-06-21 21:50:00,
2013-06-21 16:55:00,94.2,66.2,29.68,SSE,162,20.0,27.0,40,0.00,,,0.00,Wunderground v.1.15,2013-06-21 21:55:00,
2013-06-21 17:00:00,94.5,67.2,29.68,SSE,156,22.0,27.0,41,0.00,,,0.00,Wunderground v.1.15,2013-06-21 22:00:00,
2013-06-21 17:10:00,95.1,67.7,29.68,South,173,18.0,27.0,41,0.00,,,0.00,Wunderground v.1.15,2013-06-21 22:10:00,
2013-06-21 17:15:00,95.0,67.6,29.68,SSE,154,18.0,27.0,41,0.00,,,0.00,Wunderground v.1.15,2013-06-21 22:15:00,
2013-06-21 17:20:00,95.2,67.1,29.68,SSE,161,20.0,20.0,40,0.00,,,0.00,Wunderground v.1.15,2013-06-21 22:20:00,
2013-06-21 17:25:00,95.0,68.3,29.68,South,169,20.0,22.0,42,0.00,,,0.00,Wunderground v.1.15,2013-06-21 22:25:00,
2013-06-21 17:30:00,94.9,67.5,29.68,South,191,21.0,21.0,41,0.00,,,0.00,Wunderground v.1.15,2013-06-21 22:30:00,
2013-06-21 17:40:00,94.5,67.9,29.68,SSE,167,22.0,22.0,42,0.00,,,0.00,Wunderground v.1.15,2013-06-21 22:40:00,
2013-06-21 17:45:00,94.2,68.9,29.67,SE,134,23.0,24.0,44,0.00,,,0.00,Wunderground v.1.15,2013-06-21 22:45:00,
2013-06-21 17:54:00,93.8,69.2,29.67,SSE,161,22.0,27.0,45,0.00,,,0.00,Wunderground v.1.15,2013-06-21 22:54:00,
2013-06-21 18:00:00,93.8,69.9,29.67,SSE,156,21.0,21.0,46,0.00,,,0.00,Wunderground v.1.15,2013-06-21 23:00:00,
2013-06-21 18:05:00,93.5,69.6,29.67,South,169,23.0,23.0,46,0.00,,,0.00,Wunderground v.1.15,2013-06-21 23:05:00,
2013-06-21 18:10:00,93.4,69.5,29.67,SSE,159,24.0,24.0,46,0.00,,,0.00,Wunderground v.1.15,2013-06-21 23:10:00,
2013-06-21 18:20:00,93.4,69.5,29.67,SE,146,20.0,27.0,46,0.00,,,0.00,Wunderground v.1.15,2013-06-21 23:20:00,
2013-06-21 18:25:00,93.3,69.4,29.67,SSE,162,22.0,27.0,46,0.00,,,0.00,Wunderground v.1.15,2013-06-21 23:25:00,
2013-06-21 18:30:00,93.4,70.2,29.67,SSE,159,21.0,27.0,47,0.00,,,0.00,Wunderground v.1.15,2013-06-21 23:30:00,
2013-06-21 18:35:00,93.1,69.9,29.67,SSE,164,22.0,27.0,47,0.00,,,0.00,Wunderground v.1.15,2013-06-21 23:35:00,
2013-06-21 18:40:00,93.0,69.8,29.67,SSE,167,23.0,23.0,47,0.00,,,0.00,Wunderground v.1.15,2013-06-21 23:40:00,
2013-06-21 18:50:00,92.5,68.1,29.67,SE,137,24.0,30.0,45,0.00,,,0.00,Wunderground v.1.15,2013-06-21 23:50:00,
2013-06-21 18:55:00,92.3,67.9,29.67,SSE,161,24.0,30.0,45,0.00,,,0.00,Wunderground v.1.15,2013-06-21 23:55:00,
2013-06-21 19:00:00,92.1,68.3,29.67,SSE,153,21.0,21.0,46,0.00,,,0.00,Wunderground v.1.15,2013-06-22 00:00:00,
2013-06-21 19:10:00,91.8,67.4,29.67,SSE,155,20.0,27.0,45,0.00,,,0.00,Wunderground v.1.15,2013-06-22 00:10:00,
2013-06-21 19:15:00,91.7,68.0,29.68,SSE,167,18.0,27.0,46,0.00,,,0.00,Wunderground v.1.15,2013-06-22 00:15:00,
2013-06-21 19:20:00,91.5,67.2,29.67,SSE,150,19.0,27.0,45,0.00,,,0.00,Wunderground v.1.15,2013-06-22 00:20:00,
2013-06-21 19:30:00,91.1,66.8,29.67,SSE,161,19.0,19.0,45,0.00,,,0.00,Wunderground v.1.15,2013-06-22 00:30:00,
2013-06-21 19:35:00,90.8,66.5,29.68,SSE,155,19.0,30.0,45,0.00,,,0.00,Wunderground v.1.15,2013-06-22 00:35:00,
2013-06-21 19:45:00,90.5,66.3,29.68,SSE,159,19.0,27.0,45,0.00,,,0.00,Wunderground v.1.15,2013-06-22 00:45:00,
2013-06-21 19:50:00,90.4,66.8,29.68,SSE,162,17.0,17.0,46,0.00,,,0.00,Wunderground v.1.15,2013-06-22 00:50:00,
2013-06-21 19:55:00,89.9,67.0,29.69,SSE,156,17.0,27.0,47,0.00,,,0.00,Wunderground v.1.15,2013-06-22 00:55:00,
2013-06-21 20:00:00,89.5,67.2,29.69,SSE,161,16.0,27.0,48,0.00,,,0.00,Wunderground v.1.15,2013-06-22 01:00:00,
2013-06-21 20:10:00,89.0,67.4,29.70,SSE,159,15.0,15.0,49,0.00,,,0.00,Wunderground v.1.15,2013-06-22 01:10:00,
2013-06-21 20:15:00,88.9,67.3,29.70,SSE,166,14.0,27.0,49,0.00,,,0.00,Wunderground v.1.15,2013-06-22 01:15:00,
2013-06-21 20:20:00,88.6,67.0,29.70,SSE,161,15.0,15.0,49,0.00,,,0.00,Wunderground v.1.15,2013-06-22 01:20:00,
2013-06-21 20:25:00,88.3,67.3,29.70,SSE,159,14.0,27.0,50,0.00,,,0.00,Wunderground v.1.15,2013-06-22 01:25:00,
2013-06-21 20:35:00,87.8,66.3,29.71,SSE,159,13.0,27.0,49,0.00,,,0.00,Wunderground v.1.15,2013-06-22 01:35:00,
2013-06-21 20:40:00,87.5,66.6,29.71,SSE,162,13.0,27.0,50,0.00,,,0.00,Wunderground v.1.15,2013-06-22 01:40:00,
2013-06-21 20:50:00,86.8,66.5,29.71,SSE,160,14.0,14.0,51,0.00,,,0.00,Wunderground v.1.15,2013-06-22 01:50:00,
2013-06-21 20:55:00,86.6,66.3,29.71,SSE,160,13.0,27.0,51,0.00,,,0.00,Wunderground v.1.15,2013-06-22 01:55:00,
2013-06-21 21:00:00,86.4,66.7,29.72,SSE,150,13.0,27.0,52,0.00,,,0.00,Wunderground v.1.15,2013-06-22 02:00:00,
2013-06-21 21:05:00,86.2,66.5,29.72,SSE,162,13.0,27.0,52,0.00,,,0.00,Wunderground v.1.15,2013-06-22 02:05:00,
2013-06-21 21:15:00,85.6,66.5,29.72,SSE,150,13.0,27.0,53,0.00,,,0.00,Wunderground v.1.15,2013-06-22 02:15:00,
2013-06-21 21:20:00,85.1,66.6,29.72,SSE,155,13.0,27.0,54,0.00,,,0.00,Wunderground v.1.15,2013-06-22 02:20:00,
2013-06-21 21:25:00,85.0,66.5,29.72,SSE,150,13.0,27.0,54,0.00,,,0.00,Wunderground v.1.15,2013-06-22 02:25:00,
2013-06-21 21:30:00,84.9,66.9,29.72,SSE,155,14.0,27.0,55,0.00,,,0.00,Wunderground v.1.15,2013-06-22 02:30:00,
2013-06-21 21:40:00,84.8,66.8,29.72,SSE,158,14.0,14.0,55,0.00,,,0.00,Wunderground v.1.15,2013-06-22 02:40:00,
2013-06-21 21:45:00,84.8,66.8,29.73,SSE,160,15.0,15.0,55,0.00,,,0.00,Wunderground v.1.15,2013-06-22 02:45:00,
2013-06-21 21:50:00,84.7,66.7,29.73,SSE,163,14.0,14.0,55,0.00,,,0.00,Wunderground v.1.15,2013-06-22 02:50:00,
2013-06-21 21:55:00,84.5,67.1,29.74,SSE,159,13.0,27.0,56,0.00,,,0.00,Wunderground v.1.15,2013-06-22 02:55:00,
2013-06-21 22:05:00,84.1,67.2,29.74,SSE,150,12.0,27.0,57,0.00,,,0.00,Wunderground v.1.15,2013-06-22 03:05:00,
2013-06-21 22:10:00,83.7,67.4,29.74,SSE,153,12.0,27.0,58,0.00,,,0.00,Wunderground v.1.15,2013-06-22 03:10:00,
2013-06-21 22:15:00,83.4,67.1,29.74,SSE,154,14.0,27.0,58,0.00,,,0.00,Wunderground v.1.15,2013-06-22 03:15:00,
2013-06-21 22:25:00,83.1,67.3,29.73,SSE,163,16.0,19.0,59,0.00,,,0.00,Wunderground v.1.15,2013-06-22 03:25:00,
2013-06-21 22:30:00,83.1,67.3,29.73,SSE,163,16.0,27.0,59,0.00,,,0.00,Wunderground v.1.15,2013-06-22 03:30:00,
2013-06-21 22:35:00,83.2,67.4,29.74,SSE,150,16.0,27.0,59,0.00,,,0.00,Wunderground v.1.15,2013-06-22 03:35:00,
2013-06-21 22:45:00,83.2,67.4,29.74,SSE,165,16.0,27.0,59,0.00,,,0.00,Wunderground v.1.15,2013-06-22 03:45:00,
2013-06-21 22:50:00,83.1,67.3,29.74,SSE,153,16.0,27.0,59,0.00,,,0.00,Wunderground v.1.15,2013-06-22 03:50:00,
2013-06-21 22:55:00,83.1,67.3,29.74,SSE,149,17.0,27.0,59,0.00,,,0.00,Wunderground v.1.15,2013-06-22 03:55:00,
2013-06-21 23:00:00,82.9,67.6,29.73,SSE,147,18.0,27.0,60,0.00,,,0.00,Wunderground v.1.15,2013-06-22 04:00:00,
2013-06-21 23:04:00,82.7,67.4,29.74,SSE,162,18.0,27.0,60,0.00,,,0.00,Wunderground v.1.15,2013-06-22 04:04:00,
2013-06-21 23:10:00,82.5,67.2,29.75,SSE,161,17.0,17.0,60,0.00,,,0.00,Wunderground v.1.15,2013-06-22 04:10:00,
2013-06-21 23:15:00,82.3,67.5,29.75,SSE,153,16.0,27.0,61,0.00,,,0.00,Wunderground v.1.15,2013-06-22 04:15:00,
2013-06-21 23:20:00,82.2,67.4,29.75,SSE,156,16.0,27.0,61,0.00,,,0.00,Wunderground v.1.15,2013-06-22 04:20:00,
2013-06-21 23:25:00,82.1,67.8,29.75,SSE,148,16.0,27.0,62,0.00,,,0.00,Wunderground v.1.15,2013-06-22 04:25:00,
2013-06-21 23:30:00,81.9,67.6,29.75,SSE,166,16.0,16.0,62,0.00,,,0.00,Wunderground v.1.15,2013-06-22 04:30:00,
2013-06-21 23:40:00,81.7,67.9,29.76,SSE,160,15.0,27.0,63,0.00,,,0.00,Wunderground v.1.15,2013-06-22 04:40:00,
2013-06-21 23:45:00,81.7,68.3,29.76,SSE,167,16.0,27.0,64,0.00,,,0.00,Wunderground v.1.15,2013-06-22 04:45:00,
2013-06-21 23:50:00,81.6,68.2,29.77,South,169,15.0,27.0,64,0.00,,,0.00,Wunderground v.1.15,2013-06-22 04:50:00,